Location: Foligno
(42.9600°N, 12.7050°E)
Time: 02:24:11
(UTC+02:00)

ISS - Pass Details

Date: 16 July 2018
Orbit: 402 x 408 km, 51.6° (Epoch: 17 July)

Event Time Altitude Azimuth Distance (km) Brightness Sun altitude
Rises 04:06:34 0° 303° (WNW) 2,331 0.0 -14.5°
Reaches altitude 10° 04:09:00 10° 320° (NW) 1,471 -0.9 -14.3°
Maximum altitude 04:11:36 21° 12° (NNE) 977 -1.1 -13.9°
Drops below altitude 10° 04:14:12 10° 64° (ENE) 1,470 0.2 -13.6°
Sets 04:16:37 0° 81° (E) 2,330 0.9 -13.3°
